Flag for U.S.A. Weather past 2 weeks in Decatur, Illinois, U.S.A.

Now
-2 °F

Clear.


Feels Like: -14 °F
Forecast: 0 / 31 °F
Wind: 6 mph from Southwest

Location: Decatur Airport

Current Time: Mar 6, 2015 at 5:19:09 AM

Latest Report: Mar 6, 2015 at 4:54 AM


Visibility: 10 mi

Pressure: 30.57 "Hg

Humidity: 72%

Dew point: -9 °F

Location of DecaturLocation

Historic Weather in Decatur — Graph

°F

Decatur temperature yesterday

Maximum temperature yesterday: 16 °F (at 11:54 AM)
Minimum temperature yesterday: -6 °F (at 11:54 PM)
Average temperature yesterday: 11 °F

Past Weeks' High & Low Weather Summary

 TemperatureHumidityPressure
High39 °F (Mar 3, 1:54 PM)97% (Mar 3, 9:54 AM)30.79 "Hg (Mar 3, 9:54 AM)
Low-8 °F (Mar 6, 1:54 AM)36% (Feb 19, 3:54 PM)29.77 "Hg (Mar 3, 1:54 PM)
Average18 °F71%30.32 "Hg
* Reported Feb 19 3:54 AM — Mar 6 3:54 AM, Decatur, Weather by CustomWeather, © 2015

Note: Actual official high and low records may vary slightly from our data, if they occured in-between our weather recording intervals... More about our weather records

Advertising

Decatur weather history for previous 24 hours

 ConditionsComfort  
Time TempWeatherWind HumidityBarometerVisibility
3:54 AM
Fri, Mar 6
-8 °FClear.No wind83%30.56 "Hg10 mi
2:54 AM-5 °FClear.3 mph72%30.58 "Hg10 mi
1:54 AM-8 °FClear.No wind78%30.60 "Hg10 mi
12:54 AM-6 °FClear.No wind87%30.60 "Hg10 mi
11:54 PM
Thu, Mar 5
-6 °FClear.No windN/A30.61 "Hg10 mi
10:54 PM1 °FClear.No wind72%30.63 "Hg10 mi
9:54 PM2 °FClear.No wind69%30.63 "Hg10 mi
8:54 PM8 °FClear.3 mph66%30.63 "Hg10 mi
7:54 PM9 °FClear.No wind61%30.63 "Hg10 mi
6:54 PM12 °FClear.3 mph56%30.62 "Hg10 mi
5:54 PM13 °FClear.6 mph56%30.60 "Hg10 mi
4:54 PM14 °FSunny.10 mph56%30.59 "Hg10 mi
3:54 PM15 °FSunny.13 mph53%30.58 "Hg10 mi
2:54 PM16 °FSunny.13 mph53%30.57 "Hg10 mi
1:54 PM16 °FSunny.14 mph56%30.56 "Hg10 mi
12:54 PM16 °FSunny.15 mph51%30.56 "Hg10 mi
11:54 AM16 °FSunny.22 mph49%30.56 "Hg10 mi
10:54 AM15 °FSunny.16 mph56%30.56 "Hg10 mi
9:54 AM14 °FSunny.12 mph61%30.55 "Hg10 mi
8:54 AM12 °FSunny.12 mph61%30.53 "Hg10 mi
7:54 AM11 °FSunny.12 mph64%30.50 "Hg10 mi
6:54 AM10 °FSunny.9 mph67%30.47 "Hg10 mi
5:54 AM11 °FClear.10 mph64%30.46 "Hg10 mi
Weather by CustomWeather, © 2015

See weather overviewHow to use our weather pages